Location: Arrien
(43.3167°N, 0.1500°W)
Time: 23:15:07
(UTC+00:00)

Cosmos 1821 Rocket - Pass Details

Date: 15 October 2021
Orbit: 944 x 1005 km, 82.9° (Epoch: 04 December)

Event Time Altitude Azimuth Distance (km) Brightness Sun altitude
Rises 18:42:10 0° 190° (S) 3,714 7.1 -16.2°
Reaches altitude 10° 18:44:41 10° 191° (SSW) 2,771 6.5 -16.6°
Maximum altitude 18:51:04 78° 278° (W) 1,031 4.2 -17.8°
Drops below altitude 10° 18:57:30 10° 5° (N) 2,782 6.4 -19.0°
Sets 19:00:02 0° 7° (N) 3,731 7.0 -19.4°
